Terminal Aerodrome Forecast
Issued by NWS Grand Forks, ND

Home | Current Version | Previous Version | Graphics & Text | Print | Product List | Glossary On
Versions: 1 2 3 4 5 6 7 8 9 10 11 12 13 14 15 16 17 18 19 20
000
FTUS43 KFGF 181900 AAA
TAFFAR
TAF AMD
KFAR 181903Z 1819/1918 26007KT P6SM BKN100
     FM181930 31011KT P6SM -SHRA OVC018
     FM182100 31012KT P6SM VCTS BKN015CB
     FM190000 VRB03KT P6SM FEW250=

USA.gov is the U.S. government's official web portal to all federal, state and local government web resources and services.